Danbury, CT (06810)

6:38 AM EDT on September 02, 2015 (GMT -0400)
Gregory ST | | Change Station
CLOSE
Current Station
Personal Weather Station
Location: Danbury, CT
Elevation: 621 ft
Nearby Weather Stations
Active Advisory: Special Statement Active Notice: Record Report

Elev 621 ft 41.40 °N, 73.48 °W | Updated 6 seconds ago

Clear
Clear
62.2 °F
Feels Like 62.2 °F
N
0.0
Wind Variable Wind from WNW
Gusts 0.0 mph

Today
High -- | Low -- °F
--% Chance of Precip.
Yesterday
High -- | Low -- °F
Precip. -- in
6:20 AM 7:25 PM
Waning Gibbous, 81% visible
Pressure 30.04 in
Visibility 6.0 miles
Clouds Clear
Dew Point 60 °F
Humidity 93%
Rainfall 0.00 in
Snow Depth Not available.
UV 0 out of 12
Pollen 9.50 out of 12
Air Quality Not available.
Flu Activity Not available.
METAR KDXR 020953Z AUTO 24003KT 6SM BR CLR 16/13 A3005 RMK AO2 SLP171 T01560133
Pressure 30.04 in
Visibility 6.0 miles
Clouds Clear
Dew Point 60 °F
Humidity 93%
Rainfall 0.00 in
Snow Depth Not available.
UV 0 out of 12
Pollen 9.50 out of 12
Air Quality Not available.
Flu Activity Not available.
METAR KDXR 020953Z AUTO 24003KT 6SM BR CLR 16/13 A3005 RMK AO2 SLP171 T01560133

10-Day Weather Forecast

×

Almanac

Astronomy

Sep. 02, 2015 Rise Set
Actual Time
Civil Twilight
Nautical Twilight
Astronomical Twilight
Moon
Length of Visible Light
Length of Day
Tomorrow will be .
, % of the Moon is Illuminated

Today's Extremes

State Highs State Lows

Community

WunderPhotos

Upload Photos

1,851,734 photos uploaded!

WunderBlogs® & News

Nearby

Air Quality

  Air Quality AQ Index Pollutant
Not available.

Snow Depth

Station Depth Elevation

Earthquake Activity

City Distance Mag. Time & Date
Minimum magnitude displayed is 2.5.

Coastal Water Temperatures

Place Temperature

Stations

Nearby Weather Stations

Station Location Temp. Windchill Dew Point Humidity Wind Precip. Elev Updated Type
                   
Special Statement
Statement as of 5:20 AM EDT on September 02, 2015

... Patchy dense fog until 8 am...

Clear skies and calm winds will cause areas of fog until around 8
am.

A few patches of dense fog may briefly restrict visibility to 1/4
mile or less.

Motorists should exercise extra caution while driving through
early morning fog.



520 am EDT Wed Sep 2 2015

... Patchy dense fog until 8 am...

Clear skies and calm winds will cause areas of fog until around 8
am.

A few patches of dense fog may briefly restrict visibility to 1/4
mile or less.

Motorists should exercise extra caution while driving through
early morning fog.


520 am EDT Wed Sep 2 2015

... Patchy dense fog until 8 am...

Clear skies and calm winds will cause areas of fog until around 8
am.

A few patches of dense fog may briefly restrict visibility to 1/4
mile or less.

Motorists should exercise extra caution while driving through
early morning fog.